Weather History for Fresno, CA

Change the Weather History Date:

Tuesday, August 20, 2013

  Actual Average Record
Temperature  
Mean Temperature 91 °F 81 °F  
Max Temperature 104 °F 97 °F 108 °F (1919)
Min Temperature 77 °F 66 °F 54 °F (1974)
Degree Days  
Heating Degree Days 0    
Month to date heating degree days 0  
Since 1 June heating degree days 0  
Since 1 July heating degree days 0  
Cooling Degree Days 26    
Month to date cooling degree days 357  
Year to date cooling degree days 1938  
Since 1 June cooling degree days 1531  
Growing Degree Days 41 (Base 50)    
Moisture  
Dew Point 55 °F    
Average Humidity 36    
Maximum Humidity 58    
Minimum Humidity 14    
Precipitation  
Precipitation 0.00 in 0.00 in 0.00 in (2014)
Month to date precipitation T 0.00  
Year to date precipitation 2.28 7.85  
Since 1 July precipitation T 0.01  
Snow  
Snow 0.00 in - - ()
Month to date snowfall 0.0  
Since 1 June snowfall 0.0  
Since 1 July snowfall 0.0  
Snow Depth 0.00 in    
Sea Level Pressure  
Sea Level Pressure 29.77 in    
Wind  
Wind Speed 4 mph (SW)    
Max Wind Speed 12 mph    
Max Gust Speed 23 mph    
Visibility 10 miles    
Events      
T = Trace of Precipitation, MM = Missing Value Source: NWS Daily Summary

Daily Weather History Graph

Daily Weather History Graph

Search for Another Location

Airport:

Trip Planner

Search our weather history database for the weather conditions in past years. The results will help you decide how hot, cold, wet, or windy it might be!

Date:

Astronomy

Aug. 20, 2013 Rise Set
Actual Time 6:20 AM PDT 7:43 PM PDT
Civil Twilight 5:53 AM PDT 8:10 PM PDT
Nautical Twilight 5:20 AM PDT 8:42 PM PDT
Astronomical Twilight 4:46 AM PDT 9:16 PM PDT
Moon 7:19 PM PDT (8/20) 5:55 AM PDT (8/20)
Length of Visible Light 14h 17m
Length of Day
13h 22m
Full, 100% of the Moon is Illuminated
Aug 20
Full
Aug 20
Full
Aug 28
Last Quarter
Sep 5
New
Sep 12
First Quarter

Hourly Weather History & Observations

Time (PDT) Temp. Heat Index Dew Point Humidity Pressure Visibility Wind Dir Wind Speed Gust Speed Precip Events Conditions
12:53 AM 87.1 °F 87.5 °F 62.1 °F 43% 29.76 in 10.0 mi Calm Calm - N/A   Partly Cloudy
1:53 AM 82.9 °F 84.4 °F 64.0 °F 53% 29.77 in 10.0 mi WNW 3.5 mph - N/A   Clear
2:53 AM 81.0 °F 82.7 °F 64.9 °F 58% 29.77 in 10.0 mi Calm Calm - N/A   Clear
3:53 AM 81.0 °F 82.5 °F 64.0 °F 56% 29.77 in 10.0 mi Calm Calm - N/A   Clear
4:53 AM 80.1 °F 80.7 °F 59.0 °F 48% 29.78 in 10.0 mi East 4.6 mph - N/A   Clear
5:53 AM 78.1 °F - 57.9 °F 50% 29.79 in 10.0 mi ESE 6.9 mph - N/A   Partly Cloudy
6:53 AM 79.0 °F - 55.9 °F 45% 29.81 in 10.0 mi Calm Calm - N/A   Partly Cloudy
7:53 AM 82.0 °F - 51.1 °F 34% 29.82 in 10.0 mi SE 4.6 mph - N/A   Clear
8:53 AM 84.9 °F - 48.0 °F 28% 29.83 in 10.0 mi SE 5.8 mph - N/A   Clear
11:53 AM 93.0 °F 90.6 °F 53.1 °F 26% 29.82 in 10.0 mi SSE 5.8 mph - N/A   Partly Cloudy
12:53 PM 97.0 °F 95.3 °F 55.9 °F 25% 29.80 in 10.0 mi Variable 4.6 mph - N/A   Partly Cloudy
1:53 PM 99.0 °F 98.1 °F 57.0 °F 25% 29.78 in 10.0 mi SSW 5.8 mph - N/A   Scattered Clouds
2:53 PM 102.0 °F - 50.0 °F 17% 29.75 in 10.0 mi WSW 5.8 mph - N/A   Scattered Clouds
3:53 PM 102.9 °F - 48.0 °F 16% 29.73 in 10.0 mi SSW 3.5 mph - N/A   Scattered Clouds
4:53 PM 104.0 °F - 46.9 °F 15% 29.72 in 10.0 mi WSW 5.8 mph - N/A   Scattered Clouds
5:53 PM 102.9 °F - 42.1 °F 13% 29.72 in 10.0 mi South 5.8 mph - N/A   Scattered Clouds
6:53 PM 102.9 °F - 39.9 °F 12% 29.71 in 10.0 mi Calm Calm - N/A   Scattered Clouds
7:53 PM 98.1 °F 96.8 °F 57.0 °F 25% 29.72 in 10.0 mi WNW 11.5 mph - N/A   Scattered Clouds
8:53 PM 93.0 °F 92.7 °F 60.1 °F 33% 29.74 in 10.0 mi NW 10.4 mph - N/A   Scattered Clouds
9:53 PM 89.1 °F 89.3 °F 62.1 °F 40% 29.76 in 10.0 mi NW 11.5 mph - N/A   Clear
10:53 PM 84.9 °F 85.0 °F 61.0 °F 44% 29.78 in 10.0 mi NW 16.1 mph - N/A   Clear
11:53 PM 82.9 °F 82.1 °F 55.9 °F 39% 29.79 in 10.0 mi NW 11.5 mph - N/A   Clear